New Bedford, MA

9:23 AM EST on December 12, 2017 (GMT -0500)
New Bedford Regional

Weather History for KEWB - October, 2010

Change the Weather History Date:

Friday, October 1, 2010

  Actual Average Record
Temperature  
Mean Temperature 68 °F -  
Max Temperature 80 °F 68 °F 84 °F (1968)
Min Temperature 57 °F 52 °F 32 °F (1992)
Cooling Degree Days 4    
Growing Degree Days 18 (Base 50)    
Moisture  
Dew Point 66 °F    
Average Humidity 88    
Maximum Humidity 94    
Minimum Humidity 71    
Precipitation  
Precipitation 1.07 in - - ()
Sea Level Pressure  
Sea Level Pressure 29.64 in    
Wind  
Wind Speed 15 mph (SSW)    
Max Wind Speed 25 mph    
Max Gust Speed 36 mph    
Visibility 8 miles    
Events Rain    
Averages and records for this station are not official NWS values.
T = Trace of Precipitation, MM = Missing Value Source: NWS Daily Summary

Daily Weather History Graph

Daily Weather History Graph

Search for Another Location

Airport or City:

Trip Planner

Search our weather history database for the weather conditions in past years. The results will help you decide how hot, cold, wet, or windy it might be!

Date:

Astronomy

Oct. 01, 2010 Rise Set
Actual Time 6:40 AM EDT 6:25 PM EDT
Civil Twilight 6:12 AM EDT 6:53 PM EDT
Nautical Twilight 5:40 AM EDT 7:25 PM EDT
Astronomical Twilight 5:08 AM EDT 7:57 PM EDT
Moon No Moon Rise 2:34 PM EDT (10/1)
Length of Visible Light 12h 40m
Length of Day
11h 45m
Last Quarter, 44% of the Moon is Illuminated
Oct 1
Last Quarter
Oct 7
New
Oct 14
First Quarter
Oct 22
Full
Oct 30
Last Quarter

Hourly Weather History & Observations

Time (EDT) Temp. Heat Index Dew Point Humidity Pressure Visibility Wind Dir Wind Speed Gust Speed Precip Events Conditions
12:00 AM 75.2 °F - 71.6 °F 89% 29.80 in 10.0 mi South 17.3 mph 26.5 mph N/A   Overcast
12:10 AM 75.2 °F - 71.6 °F 89% 29.80 in 10.0 mi South 16.1 mph 29.9 mph N/A   Overcast
12:53 AM 75.0 °F - 71.1 °F 87% 29.77 in 10.0 mi South 17.3 mph 25.3 mph N/A   Overcast
1:53 AM 73.9 °F - 71.1 °F 91% 29.76 in 10.0 mi South 18.4 mph 31.1 mph N/A   Overcast
2:15 AM 73.4 °F - 69.8 °F 88% 29.75 in 9.0 mi South 20.7 mph 26.5 mph N/A   Overcast
2:53 AM 73.9 °F - 71.1 °F 91% 29.74 in 9.0 mi South 19.6 mph 27.6 mph N/A   Overcast
3:40 AM 73.4 °F - 71.6 °F 94% 29.73 in 8.0 mi South 15.0 mph 27.6 mph N/A   Overcast
3:53 AM 73.9 °F - 71.1 °F 91% 29.73 in 8.0 mi South 13.8 mph - N/A   Overcast
4:53 AM 73.9 °F - 71.1 °F 91% 29.72 in 8.0 mi South 17.3 mph 27.6 mph N/A   Overcast
5:42 AM 73.4 °F - 69.8 °F 88% 29.71 in 7.0 mi South 13.8 mph 19.6 mph N/A   Overcast
5:53 AM 73.9 °F - 71.1 °F 91% 29.70 in 7.0 mi South 13.8 mph 21.9 mph N/A   Overcast
6:53 AM 75.0 °F - 71.1 °F 87% 29.68 in 8.0 mi South 16.1 mph 28.8 mph N/A   Mostly Cloudy
6:56 AM 75.2 °F - 71.6 °F 89% 29.67 in 9.0 mi South 18.4 mph 28.8 mph N/A   Mostly Cloudy
7:53 AM 75.9 °F - 70.0 °F 82% 29.68 in 10.0 mi SSE 18.4 mph 27.6 mph N/A   Partly Cloudy
8:53 AM 77.0 °F - 70.0 °F 79% 29.66 in 10.0 mi South 20.7 mph 31.1 mph N/A   Partly Cloudy
9:53 AM 79.0 °F - 70.0 °F 74% 29.65 in 10.0 mi South 24.2 mph 34.5 mph N/A   Clear
10:53 AM 80.1 °F 83.2 °F 70.0 °F 71% 29.62 in 10.0 mi South 20.7 mph 35.7 mph N/A   Clear
11:53 AM 78.1 °F - 70.0 °F 76% 29.59 in 10.0 mi South 25.3 mph 32.2 mph N/A   Scattered Clouds
12:49 PM 75.2 °F - 71.6 °F 89% 29.59 in 10.0 mi South 21.9 mph 33.4 mph 0.01 in   Overcast
12:53 PM 75.0 °F - 70.0 °F 84% 29.59 in 8.0 mi South 25.3 mph 34.5 mph 0.01 in Rain Light Rain
1:06 PM 71.6 °F - 68.0 °F 88% 29.59 in 2.0 mi SSW 19.6 mph 35.7 mph 0.07 in Rain Rain
1:20 PM 71.6 °F - 68.0 °F 88% 29.58 in 2.0 mi SSW 12.7 mph - 0.12 in Rain Rain
1:29 PM 71.6 °F - 68.0 °F 88% 29.59 in 6.0 mi SSW 12.7 mph 20.7 mph 0.13 in Rain Light Rain
1:43 PM 69.8 °F - 66.2 °F 88% 29.58 in 4.0 mi South 11.5 mph 20.7 mph 0.15 in Rain Rain
1:53 PM 70.0 °F - 66.9 °F 90% 29.57 in 3.0 mi SSW 13.8 mph - 0.18 in Rain Rain
2:18 PM 69.8 °F - 66.2 °F 88% 29.57 in 7.0 mi SSW 11.5 mph 20.7 mph 0.04 in Rain Light Rain
2:53 PM 70.0 °F - 66.9 °F 90% 29.58 in 6.0 mi SSW 10.4 mph - 0.09 in Rain Light Rain
3:39 PM 69.8 °F - 68.0 °F 94% 29.56 in 3.0 mi SSW 4.6 mph - 0.09 in Rain Rain
3:53 PM 70.0 °F - 68.0 °F 93% 29.56 in 10.0 mi SSW 4.6 mph - 0.10 in Rain Light Rain
4:53 PM 70.0 °F - 66.9 °F 90% 29.55 in 2.0 mi South 3.5 mph - 0.21 in Rain Heavy Rain
5:53 PM 66.0 °F - 63.0 °F 90% 29.57 in 4.0 mi North 8.1 mph - 0.22 in Rain Rain
6:53 PM 63.0 °F - 60.1 °F 90% 29.60 in 7.0 mi NNW 9.2 mph - 0.08 in Rain Rain
7:53 PM 61.0 °F - 57.9 °F 90% 29.61 in 9.0 mi North 5.8 mph - 0.03 in Rain Light Rain
8:00 PM 60.8 °F - 57.2 °F 88% 29.61 in 7.0 mi North 8.1 mph - 0.00 in Rain Light Rain
8:09 PM 60.8 °F - 57.2 °F 88% 29.60 in 5.0 mi North 6.9 mph 17.3 mph 0.03 in Rain Rain
8:17 PM 60.8 °F - 57.2 °F 88% 29.61 in 10.0 mi Variable 6.9 mph - 0.03 in Rain Light Rain
8:53 PM 61.0 °F - 57.9 °F 90% 29.63 in 6.0 mi NNW 9.2 mph 17.3 mph 0.06 in Rain Heavy Rain
9:53 PM 59.0 °F - 55.9 °F 90% 29.59 in 6.0 mi NNW 10.4 mph 21.9 mph 0.02 in Rain Light Rain
10:09 PM 57.2 °F - 55.4 °F 94% 29.59 in 9.0 mi NNW 10.4 mph 24.2 mph 0.00 in Rain Light Rain
10:26 PM 57.2 °F - 55.4 °F 94% 29.60 in 10.0 mi North 11.5 mph 21.9 mph 0.00 in   Overcast
10:53 PM 59.0 °F - 55.0 °F 87% 29.60 in 10.0 mi Variable 6.9 mph - 0.00 in   Overcast
11:11 PM 59.0 °F - 55.4 °F 88% 29.60 in 10.0 mi Variable 6.9 mph - 0.00 in Rain Light Rain
11:44 PM 59.0 °F - 55.4 °F 88% 29.59 in 8.0 mi North 9.2 mph 19.6 mph 0.02 in Rain Light Rain
11:53 PM 57.9 °F - 55.9 °F 93% 29.61 in 3.0 mi NNW 8.1 mph - 0.07 in Rain Heavy Rain